This is the latest recevied weather packets stored in our database for station/object K1AWR. If no packets are shown the sender has not sent any weather packets the latest 1 day(s).
| Time | Temp. | Humidity | Pressure | Rain* | Wind** | Luminosity | Snow |
|---|---|---|---|---|---|---|---|
| 1778031406 | 17.78° C | 62% | 1010.3 hPa | 0 mm | 0.89 m/s, 227° | 0 W/m² | - |
| 1778031103 | 17.78° C | 62% | 1010.2 hPa | 0 mm | 0.45 m/s, 100° | 0 W/m² | - |
| 1778030799 | 18.33° C | 62% | 1010.2 hPa | 0 mm | 0.45 m/s, 214° | 0 W/m² | - |
| 1778030496 | 18.33° C | 61% | 1010.1 hPa | 0 mm | 0.89 m/s, 145° | 0 W/m² | - |
| 1778030193 | 18.33° C | 60% | 1010.1 hPa | 0 mm | 0.89 m/s, 194° | 0 W/m² | - |
| 1778029889 | 18.33° C | 60% | 1009.9 hPa | 0 mm | 0.45 m/s, 308° | 0 W/m² | - |
| 1778029588 | 18.89° C | 60% | 1010.1 hPa | 0 mm | 0.89 m/s, 204° | 0 W/m² | - |
| 1778029285 | 18.89° C | 60% | 1009.9 hPa | 0 mm | 1.34 m/s, 180° | 0 W/m² | - |
| 1778028982 | 18.89° C | 60% | 1009.7 hPa | 0 mm | 0.45 m/s, 169° | 0 W/m² | - |
| 1778028678 | 18.89° C | 59% | 1009.6 hPa | 0 mm | 0.89 m/s, 334° | 0 W/m² | - |
| 1778028375 | 18.89° C | 60% | 1009.7 hPa | 0 mm | 0.89 m/s, 184° | 0 W/m² | - |
| 1778028072 | 18.89° C | 59% | 1009.7 hPa | 0 mm | 1.34 m/s, 258° | 0 W/m² | - |
| 1778027768 | 19.44° C | 59% | 1009.5 hPa | 0 mm | 0.89 m/s, 191° | 0 W/m² | - |
| 1778027464 | 19.44° C | 59% | 1009.4 hPa | 0 mm | 0.89 m/s, 154° | 0 W/m² | - |
| 1778027160 | 19.44° C | 58% | 1009.4 hPa | 0 mm | 0.89 m/s, 195° | 0 W/m² | - |
| 1778026857 | 19.44° C | 59% | 1009.4 hPa | 0 mm | 0.45 m/s, 190° | 0 W/m² | - |
| 1778026553 | 19.44° C | 58% | 1009.4 hPa | 0 mm | 1.34 m/s, 204° | 0 W/m² | - |
| 1778026250 | 20° C | 59% | 1009.3 hPa | 0 mm | 0.89 m/s, 225° | 0 W/m² | - |
| 1778025947 | 20° C | 57% | 1009 hPa | 0 mm | 1.34 m/s, 173° | 0 W/m² | - |
| 1778025645 | 20° C | 58% | 1009 hPa | 0 mm | 0.45 m/s, 209° | 1 W/m² | - |
| 1778025343 | 20° C | 57% | 1009.2 hPa | 0 mm | 0.89 m/s, 211° | 1 W/m² | - |
| 1778025039 | 20° C | 59% | 1008.9 hPa | 0 mm | 0.89 m/s, 157° | 2 W/m² | - |
| 1778024736 | 20° C | 58% | 1008.8 hPa | 0 mm | 0.89 m/s, 204° | 3 W/m² | - |
| 1778024433 | 20° C | 57% | 1008.7 hPa | 0 mm | 1.34 m/s, 193° | 5 W/m² | - |
| 1778024131 | 20° C | 58% | 1008.5 hPa | 0 mm | 0.45 m/s, 181° | 7 W/m² | - |
* Rain latest hour (hover to see other rain measurements)
** Current wind speed in m/s (hover to see current wind gust speed)